Weather History for Dumas, TX

Change the Weather History Date:

Sunday, December 16, 2012

  Actual Average (KBGD) Record (KBGD)
Temperature  
Mean Temperature 38 °F 38 °F  
Max Temperature 50 °F 50 °F 74 °F (1962)
Min Temperature 26 °F 26 °F 2 °F (1987)
Degree Days  
Heating Degree Days 27 27  
Month to date heating degree days 405  
Since 1 July heating degree days 1122  
Cooling Degree Days 0 0  
Month to date cooling degree days 0  
Year to date cooling degree days 1839  
Moisture  
Dew Point 26 °F    
Average Humidity 68    
Maximum Humidity 100    
Minimum Humidity 32    
Precipitation  
Precipitation 0.00 in 0.02 in 1.22 in (1959)
Month to date precipitation 0.29  
Year to date precipitation 21.24  
Snow  
Snow 0.00 in - - ()
Month to date snowfall  
Since 1 July snowfall  
Snow Depth -    
Sea Level Pressure  
Sea Level Pressure 29.74 in    
Wind  
Wind Speed 17 mph (West)    
Max Wind Speed 24 mph    
Max Gust Speed 28 mph    
Visibility 9 miles    
Events Fog    
T = Trace of Precipitation, MM = Missing Value Source: NWS Daily Summary

Daily Weather History Graph

Daily Weather History Graph

Search for Another Location

Airport:

Trip Planner

Search our weather history database for the weather conditions in past years. The results will help you decide how hot, cold, wet, or windy it might be!

Date:

Astronomy

Dec. 16, 2012 Rise Set
Actual Time 7:51 AM CST 5:36 PM CST
Civil Twilight 7:23 AM CST 6:04 PM CST
Nautical Twilight 6:51 AM CST 6:36 PM CST
Astronomical Twilight 6:20 AM CST 7:07 PM CST
Moon 10:32 AM CST (12/16) 9:46 PM CST (12/16)
Length of Visible Light 10h 41m
Length of Day
9h 44m
Waxing Crescent, 16% of the Moon is Illuminated
Dec 16
Waxing Crescent
Dec 19
First Quarter
Dec 28
Full
Jan 4
Last Quarter
Jan 11
New

Hourly Weather History & Observations

Time (CST) Temp. Windchill Dew Point Humidity Pressure Visibility Wind Dir Wind Speed Gust Speed Precip Events Conditions
12:15 AM 37.4 °F 26.6 °F 28.4 °F 70% 29.75 in 10.0 mi WSW 21.9 mph - N/A   Clear
12:35 AM 39.2 °F 29.3 °F 28.4 °F 65% 29.75 in 10.0 mi WSW 20.7 mph - N/A   Clear
12:55 AM 37.4 °F 26.9 °F 28.4 °F 70% 29.74 in 10.0 mi WSW 20.7 mph - N/A   Clear
1:15 AM 37.4 °F 27.5 °F 28.4 °F 70% 29.74 in 10.0 mi WSW 18.4 mph - N/A   Clear
1:55 AM 35.6 °F 25.5 °F 28.4 °F 75% 29.73 in 10.0 mi WSW 17.3 mph - N/A   Clear
2:15 AM 37.4 °F 27.2 °F 28.4 °F 70% 29.73 in 10.0 mi WSW 19.6 mph - N/A   Clear
2:55 AM 37.4 °F 26.6 °F 30.2 °F 75% 29.73 in 10.0 mi WSW 21.9 mph - N/A   Clear
3:35 AM 37.4 °F 26.6 °F 30.2 °F 75% 29.72 in 10.0 mi SW 21.9 mph - N/A   Clear
3:55 AM 37.4 °F 26.6 °F 30.2 °F 75% 29.71 in 10.0 mi SW 21.9 mph - N/A   Clear
4:15 AM 35.6 °F 24.5 °F 30.2 °F 81% 29.71 in 10.0 mi WSW 20.7 mph - N/A   Clear
4:35 AM 35.6 °F 24.5 °F 30.2 °F 81% 29.70 in 10.0 mi SW 20.7 mph - N/A   Clear
4:55 AM 35.6 °F 24.8 °F 30.2 °F 81% 29.69 in 10.0 mi SW 19.6 mph 25.3 mph N/A   Clear
5:15 AM 35.6 °F 24.8 °F 28.4 °F 75% 29.69 in 10.0 mi SW 19.6 mph - N/A   Clear
5:35 AM 35.6 °F 24.8 °F 28.4 °F 75% 29.69 in 10.0 mi SW 19.6 mph - N/A   Clear
5:55 AM 33.8 °F 22.5 °F 28.4 °F 81% 29.70 in 10.0 mi SW 19.6 mph - N/A   Clear
6:15 AM 33.8 °F 21.6 °F 28.4 °F 81% 29.69 in 10.0 mi WSW 23.0 mph - N/A   Clear
6:35 AM 35.6 °F 24.2 °F 26.6 °F 70% 29.69 in 10.0 mi WSW 21.9 mph - N/A   Clear
6:55 AM 33.8 °F 22.2 °F 28.4 °F 81% 29.71 in 10.0 mi WSW 20.7 mph - N/A   Clear
7:15 AM 33.8 °F 22.8 °F 28.4 °F 81% 29.71 in 10.0 mi WSW 18.4 mph - N/A   Clear
7:35 AM 33.8 °F 21.3 °F 26.6 °F 75% 29.71 in 10.0 mi WSW 24.2 mph 27.6 mph N/A   Clear
7:55 AM 33.8 °F 21.9 °F 26.6 °F 75% 29.72 in 10.0 mi WSW 21.9 mph - N/A   Clear
8:15 AM 35.6 °F 24.0 °F 26.6 °F 70% 29.73 in 10.0 mi WSW 23.0 mph 27.6 mph N/A   Clear
8:35 AM 35.6 °F 24.2 °F 26.6 °F 70% 29.73 in 10.0 mi WSW 21.9 mph - N/A   Clear
8:55 AM 35.6 °F 24.0 °F 26.6 °F 70% 29.74 in 10.0 mi WSW 23.0 mph - N/A   Clear
9:15 AM 35.6 °F 24.0 °F 26.6 °F 70% 29.74 in 10.0 mi WSW 23.0 mph 27.6 mph N/A   Clear
9:35 AM 37.4 °F 26.9 °F 24.8 °F 60% 29.75 in 10.0 mi West 20.7 mph - N/A   Clear
9:55 AM 41.0 °F 31.9 °F 24.8 °F 53% 29.75 in 10.0 mi WSW 19.6 mph 24.2 mph N/A   Clear
10:15 AM 42.8 °F 34.8 °F 23.0 °F 46% 29.76 in 10.0 mi West 17.3 mph - N/A   Clear
10:35 AM 42.8 °F 34.3 °F 23.0 °F 46% 29.76 in 10.0 mi West 19.6 mph - N/A   Clear
10:55 AM 44.6 °F 36.9 °F 23.0 °F 43% 29.77 in 10.0 mi WSW 18.4 mph - N/A   Clear
11:35 AM 44.6 °F 37.2 °F 23.0 °F 43% 29.77 in 10.0 mi WSW 17.3 mph - N/A   Clear
11:55 AM 44.6 °F 37.2 °F 23.0 °F 43% 29.77 in 10.0 mi WSW 17.3 mph - N/A   Clear
12:35 PM 46.4 °F 40.7 °F 23.0 °F 40% 29.74 in 10.0 mi West 12.7 mph - N/A   Clear
12:55 PM 48.2 °F - 23.0 °F 37% 29.73 in 10.0 mi WNW 12.7 mph 18.4 mph N/A   Clear
1:15 PM 48.2 °F - 21.2 °F 34% 29.72 in 10.0 mi West 11.5 mph - N/A   Clear
1:35 PM 50.0 °F - 21.2 °F 32% 29.72 in 10.0 mi West 11.5 mph - N/A   Clear
1:55 PM 50.0 °F - 21.2 °F 32% 29.71 in 10.0 mi SW 12.7 mph - N/A   Clear
2:15 PM 50.0 °F - 21.2 °F 32% 29.71 in 10.0 mi WSW 17.3 mph - N/A   Clear
2:35 PM 48.2 °F - 19.4 °F 32% 29.69 in 10.0 mi WSW 16.1 mph - N/A   Clear
2:55 PM 48.2 °F - 19.4 °F 32% 29.69 in 10.0 mi WSW 13.8 mph - N/A   Clear
3:15 PM 48.2 °F - 21.2 °F 34% 29.69 in 10.0 mi WSW 12.7 mph - N/A   Clear
3:35 PM 48.2 °F - 21.2 °F 34% 29.69 in 10.0 mi WSW 11.5 mph - N/A   Clear
4:15 PM 46.4 °F 41.1 °F 17.6 °F 32% 29.70 in 10.0 mi SW 11.5 mph - N/A   Clear
4:35 PM 46.4 °F 41.9 °F 19.4 °F 34% 29.71 in 10.0 mi WSW 9.2 mph - N/A   Clear
4:55 PM 46.4 °F 41.5 °F 21.2 °F 37% 29.71 in 10.0 mi WSW 10.4 mph - N/A   Clear
5:15 PM 46.4 °F 45.2 °F 21.2 °F 37% 29.71 in 10.0 mi SW 3.5 mph - N/A   Clear
5:35 PM 42.8 °F 37.0 °F 26.6 °F 53% 29.71 in 10.0 mi NNE 10.4 mph - N/A   Clear
5:55 PM 37.4 °F 31.4 °F 30.2 °F 75% 29.71 in 10.0 mi ENE 8.1 mph - N/A   Clear
6:15 PM 35.6 °F 29.2 °F 30.2 °F 81% 29.72 in 10.0 mi NE 8.1 mph - N/A   Clear
6:35 PM 33.8 °F 27.7 °F 30.2 °F 87% 29.73 in 10.0 mi NE 6.9 mph - N/A   Clear
6:55 PM 32.0 °F 27.5 °F 30.2 °F 93% 29.73 in 10.0 mi NE 4.6 mph - N/A   Clear
7:15 PM 32.0 °F 26.4 °F 30.2 °F 93% 29.74 in 10.0 mi NE 5.8 mph - N/A   Clear
7:35 PM 32.0 °F 26.4 °F 30.2 °F 93% 29.74 in 10.0 mi NE 5.8 mph - N/A   Clear
7:55 PM 32.0 °F 26.4 °F 30.2 °F 93% 29.75 in 7.0 mi ENE 5.8 mph - N/A   Clear
8:15 PM 30.2 °F 26.7 °F 28.4 °F 93% 29.75 in 7.0 mi East 3.5 mph - N/A   Clear
8:35 PM 30.2 °F - 28.4 °F 93% 29.76 in 7.0 mi Calm Calm - N/A   Clear
8:55 PM 30.2 °F - 28.4 °F 93% 29.77 in 5.0 mi Calm Calm - N/A   Clear
9:15 PM 28.4 °F 23.3 °F 26.6 °F 93% 29.78 in 5.0 mi NNW 4.6 mph - N/A   Clear
9:35 PM 26.6 °F 17.5 °F 26.6 °F 100% 29.79 in 2.0 mi NNW 9.2 mph - N/A   Mist
9:55 PM 26.6 °F 18.2 °F 26.6 °F 100% 29.81 in 0.2 mi NW 8.1 mph - N/A Fog Light Freezing Fog
10:15 PM 26.6 °F 22.6 °F 26.6 °F 100% 29.82 in 0.2 mi WNW 3.5 mph - N/A Fog Light Freezing Fog
10:35 PM 26.6 °F 16.8 °F 26.6 °F 100% 29.83 in 1.2 mi WNW 10.4 mph - N/A   Overcast
10:55 PM 26.6 °F 18.2 °F 26.6 °F 100% 29.84 in 1.0 mi NW 8.1 mph - N/A   Overcast
11:15 PM 26.6 °F 17.5 °F 26.6 °F 100% 29.85 in 4.0 mi WNW 9.2 mph - N/A   Scattered Clouds
11:35 PM 28.4 °F 21.2 °F 26.6 °F 93% 29.85 in 5.0 mi WNW 6.9 mph - N/A   Clear
11:55 PM 28.4 °F 21.2 °F 26.6 °F 93% 29.85 in 5.0 mi WNW 6.9 mph - N/A   Clear